Location: Unspecified
(0.0000°N, 0.0000°E)
Time: 11:44:51
(UTC+00:00)

Explorer 11/Cluster Stage 4 - Pass Details

Date: 02 October 2020
Orbit: 467 x 1258 km, 28.8° (Epoch: 28 October)

Event Time Altitude Azimuth Distance (km) Brightness Sun altitude
Rises 18:39:35 0° 237° (WSW) 2,578 10.4 -12.6°
Reaches altitude 10° 18:41:51 10° 236° (SW) 1,645 9.2 -13.1°
Maximum altitude 18:45:31 77° 150° (SSE) 477 5.4 -14.1°
Enters shadow 18:47:25 26° 67° (ENE) 946 6.5 -14.5°
Drops below altitude 10° 18:49:08 10° 63° (ENE) 1,622 - -15.0°
Sets 18:51:21 0° 62° (ENE) 2,538 - -15.5°
